Time,TemperatureF,DewpointF,PressureIn,WindDirection,WindDirectionDegrees,WindSpeedMPH,WindSpeedGustMPH,Humidity,HourlyPrecipIn,Conditions,Clouds,dailyrainin,SoftwareType,DateUTC
2013-01-30 00:02:00,33.0,29.0,-100.00,North,350,18.0,26.0,88,0.04,,,-99.99,,2013-01-30 06:02:00,
2013-01-30 00:11:00,33.0,29.0,-100.00,North,0,16.0,23.0,88,0.08,,,-99.99,,2013-01-30 06:11:00,
2013-01-30 00:21:00,32.0,29.0,-100.00,North,0,12.0,26.0,88,0.08,,,-99.99,,2013-01-30 06:21:00,
2013-01-30 00:32:00,32.0,29.0,-100.00,North,0,14.0,21.0,88,0.08,,,-99.99,,2013-01-30 06:32:00,
2013-01-30 00:41:00,32.0,29.0,-100.00,North,0,14.0,21.0,88,0.08,,,-99.99,,2013-01-30 06:41:00,
2013-01-30 00:51:00,31.0,29.0,-100.00,North,0,10.0,20.0,90,0.16,,,-99.99,,2013-01-30 06:51:00,
2013-01-30 01:02:00,31.0,29.0,-100.00,North,0,10.0,20.0,90,0.16,,,-99.99,,2013-01-30 07:02:00,
2013-01-30 01:11:00,31.0,29.0,-100.00,North,0,12.0,19.0,91,0.17,,,-99.99,,2013-01-30 07:11:00,
2013-01-30 01:21:00,31.0,29.0,-100.00,North,355,14.0,21.0,92,0.24,,,-99.99,,2013-01-30 07:21:00,
2013-01-30 01:32:00,31.0,29.0,-100.00,North,0,15.0,21.0,92,0.07,,,-99.99,,2013-01-30 07:32:00,
2013-01-30 01:41:00,31.0,29.0,-100.00,North,0,15.0,21.0,92,0.07,,,-99.99,,2013-01-30 07:41:00,
2013-01-30 01:52:00,31.0,29.0,-100.00,NNW,345,16.0,20.0,93,0.07,,,-99.99,,2013-01-30 07:52:00,
2013-01-30 02:01:00,31.0,29.0,-100.00,NNW,345,16.0,20.0,93,0.07,,,-99.99,,2013-01-30 08:01:00,
2013-01-30 02:11:00,31.0,29.0,-100.00,North,0,11.0,20.0,94,0.62,,,-99.99,,2013-01-30 08:11:00,
2013-01-30 02:21:00,31.0,29.0,-100.00,North,355,17.0,22.0,94,0.48,,,-99.99,,2013-01-30 08:21:00,
2013-01-30 02:32:00,30.0,29.0,-100.00,NNW,345,15.0,24.0,94,0.18,,,-99.99,,2013-01-30 08:32:00,
2013-01-30 02:42:00,30.0,29.0,-100.00,NNW,345,15.0,24.0,94,0.18,,,-99.99,,2013-01-30 08:42:00,
2013-01-30 02:52:00,30.0,28.0,-100.00,NNW,345,17.0,25.0,93,0.18,,,-99.99,,2013-01-30 08:52:00,
2013-01-30 03:01:00,30.0,28.0,-100.00,NNW,345,17.0,25.0,93,0.18,,,-99.99,,2013-01-30 09:01:00,
2013-01-30 03:11:00,30.0,28.0,-100.00,NNW,340,20.0,27.0,93,0.33,,,-99.99,,2013-01-30 09:11:00,
2013-01-30 03:21:00,29.0,27.0,-100.00,NNW,340,21.0,28.0,92,0.28,,,-99.99,,2013-01-30 09:21:00,
2013-01-30 03:32:00,29.0,27.0,-100.00,North,350,15.0,24.0,92,0.54,,,-99.99,,2013-01-30 09:32:00,
2013-01-30 03:41:00,29.0,27.0,-100.00,North,350,15.0,24.0,92,0.54,,,-99.99,,2013-01-30 09:41:00,
2013-01-30 03:51:00,29.0,27.0,-100.00,NNW,345,21.0,25.0,93,0.98,,,-99.99,,2013-01-30 09:51:00,
2013-01-30 04:01:00,29.0,27.0,-100.00,NNW,345,21.0,25.0,93,0.98,,,-99.99,,2013-01-30 10:01:00,
2013-01-30 04:11:00,29.0,27.0,-100.00,NNW,345,17.0,26.0,93,0.00,,,-99.99,,2013-01-30 10:11:00,
2013-01-30 04:21:00,28.0,26.0,-100.00,NNW,345,19.0,30.0,93,0.00,,,-99.99,,2013-01-30 10:21:00,
2013-01-30 04:32:00,27.0,26.0,-100.00,NW,325,17.0,24.0,93,2.86,,,-99.99,,2013-01-30 10:32:00,
2013-01-30 04:41:00,27.0,26.0,-100.00,NW,325,17.0,24.0,93,2.86,,,-99.99,,2013-01-30 10:41:00,
2013-01-30 04:52:00,27.0,25.0,-100.00,NNW,335,18.0,30.0,94,5.36,,,-99.99,,2013-01-30 10:52:00,
2013-01-30 05:02:00,27.0,25.0,-100.00,NNW,335,18.0,30.0,94,5.36,,,-99.99,,2013-01-30 11:02:00,
2013-01-30 05:11:00,26.0,25.0,-100.00,NW,310,14.0,30.0,94,0.00,,,-99.99,,2013-01-30 11:11:00,
2013-01-30 05:22:00,26.0,25.0,-100.00,North,350,19.0,27.0,94,0.00,,,-99.99,,2013-01-30 11:22:00,
2013-01-30 05:32:00,26.0,24.0,-100.00,NNW,335,14.0,29.0,94,1.90,,,-99.99,,2013-01-30 11:32:00,
2013-01-30 05:42:00,26.0,24.0,-100.00,NNW,335,14.0,29.0,94,1.90,,,-99.99,,2013-01-30 11:42:00,
2013-01-30 05:52:00,25.0,24.0,-100.00,NNW,335,18.0,28.0,94,3.15,,,-99.99,,2013-01-30 11:52:00,
2013-01-30 06:02:00,25.0,24.0,-100.00,NNW,335,18.0,28.0,94,3.15,,,-99.99,,2013-01-30 12:02:00,
2013-01-30 06:12:00,25.0,24.0,-100.00,NNW,330,19.0,28.0,94,3.25,,,-99.99,,2013-01-30 12:12:00,
2013-01-30 06:22:00,25.0,24.0,-100.00,NNW,340,14.0,24.0,94,0.72,,,-99.99,,2013-01-30 12:22:00,
2013-01-30 06:32:00,25.0,24.0,-100.00,NNW,330,16.0,27.0,94,0.58,,,-99.99,,2013-01-30 12:32:00,
2013-01-30 06:42:00,25.0,24.0,-100.00,NNW,330,16.0,27.0,94,0.58,,,-99.99,,2013-01-30 12:42:00,
2013-01-30 07:03:00,25.0,24.0,-100.00,NNW,340,17.0,24.0,94,0.61,,,-99.99,,2013-01-30 13:03:00,
2013-01-30 07:12:00,25.0,24.0,-100.00,NNW,345,16.0,26.0,94,0.76,,,-99.99,,2013-01-30 13:12:00,
2013-01-30 07:22:00,24.0,23.0,-100.00,NNW,340,18.0,26.0,94,0.57,,,-99.99,,2013-01-30 13:22:00,
2013-01-30 07:32:00,24.0,23.0,-100.00,NNW,345,22.0,32.0,94,0.38,,,-99.99,,2013-01-30 13:32:00,
2013-01-30 07:42:00,24.0,23.0,-100.00,NNW,345,22.0,32.0,94,0.38,,,-99.99,,2013-01-30 13:42:00,
2013-01-30 07:52:00,24.0,23.0,-100.00,NNW,340,24.0,31.0,94,0.28,,,-99.99,,2013-01-30 13:52:00,
2013-01-30 08:02:00,24.0,23.0,-100.00,NNW,340,24.0,31.0,94,0.28,,,-99.99,,2013-01-30 14:02:00,
2013-01-30 08:12:00,24.0,23.0,-100.00,NNW,340,18.0,29.0,94,0.37,,,-99.99,,2013-01-30 14:12:00,
2013-01-30 08:22:00,24.0,23.0,-100.00,NNW,340,18.0,29.0,93,0.34,,,-99.99,,2013-01-30 14:22:00,
2013-01-30 08:33:00,23.0,22.0,-100.00,NW,320,21.0,30.0,93,0.27,,,-99.99,,2013-01-30 14:33:00,
2013-01-30 08:42:00,23.0,22.0,-100.00,NW,320,21.0,30.0,93,0.27,,,-99.99,,2013-01-30 14:42:00,
2013-01-30 08:52:00,22.0,21.0,-100.00,NNW,335,19.0,35.0,92,0.28,,,-99.99,,2013-01-30 14:52:00,
2013-01-30 09:03:00,22.0,21.0,-100.00,NNW,335,19.0,35.0,92,0.28,,,-99.99,,2013-01-30 15:03:00,
2013-01-30 09:12:00,22.0,21.0,-100.00,NNW,335,19.0,35.0,92,0.28,,,-99.99,,2013-01-30 15:12:00,
2013-01-30 09:23:00,22.0,21.0,-100.00,NNW,335,19.0,35.0,92,0.28,,,-99.99,,2013-01-30 15:23:00,
2013-01-30 09:33:00,22.0,20.0,-100.00,NNW,330,17.0,34.0,90,0.31,,,-99.99,,2013-01-30 15:33:00,
2013-01-30 09:43:00,22.0,20.0,-100.00,NNW,330,17.0,34.0,90,0.31,,,-99.99,,2013-01-30 15:43:00,
2013-01-30 09:53:00,22.0,19.0,-100.00,NNW,330,17.0,39.0,90,0.45,,,-99.99,,2013-01-30 15:53:00,
2013-01-30 10:03:00,22.0,19.0,-100.00,NNW,330,17.0,39.0,90,0.45,,,-99.99,,2013-01-30 16:03:00,
2013-01-30 10:12:00,22.0,19.0,-100.00,NNW,335,16.0,33.0,89,0.44,,,-99.99,,2013-01-30 16:12:00,
2013-01-30 10:23:00,22.0,19.0,-100.00,NNW,330,17.0,32.0,88,0.21,,,-99.99,,2013-01-30 16:23:00,
2013-01-30 10:32:00,21.0,18.0,-100.00,NW,325,16.0,28.0,87,0.23,,,-99.99,,2013-01-30 16:32:00,
2013-01-30 10:42:00,21.0,18.0,-100.00,NW,325,16.0,28.0,87,0.23,,,-99.99,,2013-01-30 16:42:00,
2013-01-30 10:52:00,20.0,17.0,-100.00,NW,315,22.0,34.0,85,0.11,,,-99.99,,2013-01-30 16:52:00,
2013-01-30 11:02:00,20.0,17.0,-100.00,NW,315,22.0,34.0,85,0.11,,,-99.99,,2013-01-30 17:02:00,
2013-01-30 11:12:00,20.0,17.0,-100.00,WNW,300,21.0,30.0,84,0.11,,,-99.99,,2013-01-30 17:12:00,
2013-01-30 11:22:00,20.0,16.0,-100.00,NW,305,17.0,33.0,83,0.10,,,-99.99,,2013-01-30 17:22:00,
2013-01-30 11:32:00,20.0,15.0,-100.00,NW,320,19.0,32.0,79,0.04,,,-99.99,,2013-01-30 17:32:00,
2013-01-30 11:42:00,20.0,15.0,-100.00,NW,320,19.0,32.0,79,0.04,,,-99.99,,2013-01-30 17:42:00,
2013-01-30 11:53:00,21.0,15.0,-100.00,NW,310,24.0,32.0,77,0.03,,,-99.99,,2013-01-30 17:53:00,
2013-01-30 12:02:00,21.0,15.0,-100.00,NW,310,24.0,32.0,77,0.03,,,-99.99,,2013-01-30 18:02:00,
2013-01-30 12:12:00,21.0,15.0,-100.00,WNW,300,17.0,30.0,76,0.04,,,-99.99,,2013-01-30 18:12:00,
2013-01-30 12:22:00,21.0,15.0,-100.00,NW,310,17.0,31.0,75,0.03,,,-99.99,,2013-01-30 18:22:00,
2013-01-30 12:33:00,21.0,14.0,-100.00,NW,325,19.0,32.0,73,0.03,,,-99.99,,2013-01-30 18:33:00,
2013-01-30 12:42:00,21.0,14.0,-100.00,NW,325,19.0,32.0,73,0.03,,,-99.99,,2013-01-30 18:42:00,
2013-01-30 12:52:00,21.0,14.0,-100.00,NW,315,21.0,35.0,73,0.03,,,-99.99,,2013-01-30 18:52:00,
2013-01-30 13:02:00,21.0,14.0,-100.00,NW,315,21.0,35.0,73,0.03,,,-99.99,,2013-01-30 19:02:00,
2013-01-30 13:12:00,22.0,15.0,-100.00,NW,305,14.0,29.0,72,0.01,,,-99.99,,2013-01-30 19:12:00,
2013-01-30 13:22:00,22.0,14.0,-100.00,NW,315,17.0,30.0,71,0.01,,,-99.99,,2013-01-30 19:22:00,
2013-01-30 13:32:00,22.0,14.0,-100.00,NW,315,19.0,29.0,69,0.01,,,-99.99,,2013-01-30 19:32:00,
2013-01-30 13:42:00,22.0,14.0,-100.00,NW,315,19.0,29.0,69,0.01,,,-99.99,,2013-01-30 19:42:00,
2013-01-30 13:52:00,23.0,14.0,-100.00,NW,310,21.0,30.0,68,0.01,,,-99.99,,2013-01-30 19:52:00,
2013-01-30 14:03:00,23.0,14.0,-100.00,NW,310,21.0,30.0,68,0.01,,,-99.99,,2013-01-30 20:03:00,
2013-01-30 14:11:00,22.0,13.0,-100.00,NW,310,22.0,32.0,68,0.01,,,-99.99,,2013-01-30 20:11:00,
2013-01-30 14:22:00,22.0,13.0,-100.00,WNW,295,22.0,30.0,68,0.01,,,-99.99,,2013-01-30 20:22:00,
2013-01-30 14:33:00,22.0,14.0,-100.00,NW,310,19.0,28.0,68,0.01,,,-99.99,,2013-01-30 20:33:00,
2013-01-30 14:42:00,22.0,14.0,-100.00,NW,310,19.0,28.0,68,0.01,,,-99.99,,2013-01-30 20:42:00,
2013-01-30 14:52:00,22.0,13.0,-100.00,WNW,295,24.0,33.0,67,0.01,,,-99.99,,2013-01-30 20:52:00,
2013-01-30 15:03:00,22.0,13.0,-100.00,WNW,295,24.0,33.0,67,0.01,,,-99.99,,2013-01-30 21:03:00,
2013-01-30 15:12:00,23.0,13.0,-100.00,NW,310,19.0,32.0,66,0.00,,,-99.99,,2013-01-30 21:12:00,
2013-01-30 15:22:00,22.0,13.0,-100.00,NW,325,17.0,30.0,66,0.01,,,-99.99,,2013-01-30 21:22:00,
2013-01-30 15:32:00,22.0,13.0,-100.00,NW,320,22.0,29.0,68,0.03,,,-99.99,,2013-01-30 21:32:00,
2013-01-30 15:42:00,22.0,13.0,-100.00,NW,320,22.0,29.0,68,0.03,,,-99.99,,2013-01-30 21:42:00,
2013-01-30 15:52:00,22.0,13.0,-100.00,NW,320,17.0,27.0,66,0.00,,,-99.99,,2013-01-30 21:52:00,
2013-01-30 16:03:00,22.0,13.0,-100.00,NW,320,17.0,27.0,66,0.00,,,-99.99,,2013-01-30 22:03:00,
2013-01-30 16:12:00,22.0,12.0,-100.00,WNW,300,19.0,31.0,65,0.01,,,-99.99,,2013-01-30 22:12:00,
2013-01-30 16:22:00,22.0,12.0,-100.00,NW,305,16.0,32.0,65,0.00,,,-99.99,,2013-01-30 22:22:00,
2013-01-30 16:32:00,21.0,12.0,-100.00,NW,315,18.0,30.0,65,0.03,,,-99.99,,2013-01-30 22:32:00,
2013-01-30 16:42:00,21.0,12.0,-100.00,NW,315,18.0,30.0,65,0.03,,,-99.99,,2013-01-30 22:42:00,
2013-01-30 16:52:00,21.0,11.0,-100.00,NW,305,19.0,27.0,66,0.00,,,-99.99,,2013-01-30 22:52:00,
2013-01-30 17:02:00,21.0,11.0,-100.00,NW,305,19.0,27.0,66,0.00,,,-99.99,,2013-01-30 23:02:00,
2013-01-30 17:12:00,20.0,10.0,-100.00,NW,310,18.0,30.0,64,0.00,,,-99.99,,2013-01-30 23:12:00,
2013-01-30 17:22:00,20.0,9.0,-100.00,NW,315,21.0,34.0,62,0.00,,,-99.99,,2013-01-30 23:22:00,
2013-01-30 17:32:00,20.0,8.0,-100.00,NW,320,16.0,27.0,60,0.00,,,-99.99,,2013-01-30 23:32:00,
2013-01-30 17:42:00,20.0,8.0,-100.00,NW,320,16.0,27.0,60,0.00,,,-99.99,,2013-01-30 23:42:00,
2013-01-30 17:52:00,19.0,8.0,-100.00,NW,305,15.0,27.0,61,0.00,,,-99.99,,2013-01-30 23:52:00,
2013-01-30 18:02:00,19.0,8.0,-100.00,NW,305,15.0,27.0,61,0.00,,,-99.99,,2013-01-31 00:02:00,
2013-01-30 18:11:00,19.0,8.0,-100.00,NW,320,14.0,24.0,62,0.00,,,-99.99,,2013-01-31 00:11:00,
2013-01-30 18:21:00,19.0,9.0,-100.00,NW,305,16.0,22.0,63,0.00,,,-99.99,,2013-01-31 00:21:00,
2013-01-30 18:32:00,19.0,8.0,-100.00,NW,310,11.0,20.0,63,0.00,,,-99.99,,2013-01-31 00:32:00,
2013-01-30 18:42:00,19.0,8.0,-100.00,NW,310,11.0,20.0,63,0.00,,,-99.99,,2013-01-31 00:42:00,
2013-01-30 18:52:00,18.0,8.0,-100.00,WNW,300,11.0,17.0,62,0.00,,,-99.99,,2013-01-31 00:52:00,
2013-01-30 19:02:00,18.0,8.0,-100.00,WNW,300,11.0,17.0,62,0.00,,,-99.99,,2013-01-31 01:02:00,
2013-01-30 19:11:00,19.0,8.0,-100.00,WNW,300,10.0,16.0,63,0.00,,,-99.99,,2013-01-31 01:11:00,
2013-01-30 19:21:00,19.0,9.0,-100.00,NW,310,9.0,16.0,63,0.00,,,-99.99,,2013-01-31 01:21:00,
2013-01-30 19:31:00,19.0,9.0,-100.00,NW,310,8.0,14.0,63,0.00,,,-99.99,,2013-01-31 01:31:00,
2013-01-30 19:41:00,19.0,9.0,-100.00,NW,310,8.0,14.0,63,0.00,,,-99.99,,2013-01-31 01:41:00,
2013-01-30 19:52:00,20.0,10.0,-100.00,WNW,290,8.0,16.0,65,0.00,,,-99.99,,2013-01-31 01:52:00,
2013-01-30 20:01:00,20.0,10.0,-100.00,WNW,290,8.0,16.0,65,0.00,,,-99.99,,2013-01-31 02:01:00,
2013-01-30 20:11:00,20.0,11.0,-100.00,WNW,290,13.0,17.0,66,0.00,,,-99.99,,2013-01-31 02:11:00,
2013-01-30 20:21:00,21.0,12.0,-100.00,WNW,290,14.0,19.0,67,0.00,,,-99.99,,2013-01-31 02:21:00,
2013-01-30 20:32:00,21.0,12.0,-100.00,WNW,300,17.0,24.0,67,0.00,,,-99.99,,2013-01-31 02:32:00,
2013-01-30 20:41:00,21.0,12.0,-100.00,WNW,300,17.0,24.0,67,0.00,,,-99.99,,2013-01-31 02:41:00,
2013-01-30 20:52:00,21.0,12.0,-100.00,WNW,300,17.0,24.0,67,0.00,,,-99.99,,2013-01-31 02:52:00,
2013-01-30 21:03:00,20.0,12.0,-100.00,West,275,17.0,22.0,69,0.00,,,-99.99,,2013-01-31 03:03:00,
2013-01-30 21:11:00,20.0,12.0,-100.00,WNW,290,19.0,24.0,70,0.01,,,-99.99,,2013-01-31 03:11:00,
2013-01-30 21:21:00,20.0,12.0,-100.00,WNW,290,15.0,22.0,71,0.00,,,-99.99,,2013-01-31 03:21:00,
2013-01-30 21:32:00,19.0,11.0,-100.00,WNW,295,17.0,24.0,70,0.00,,,-99.99,,2013-01-31 03:32:00,
2013-01-30 21:41:00,19.0,11.0,-100.00,WNW,295,17.0,24.0,70,0.00,,,-99.99,,2013-01-31 03:41:00,
2013-01-30 21:51:00,19.0,11.0,-100.00,WNW,290,19.0,22.0,70,0.00,,,-99.99,,2013-01-31 03:51:00,
2013-01-30 22:02:00,19.0,11.0,-100.00,WNW,290,19.0,22.0,70,0.00,,,-99.99,,2013-01-31 04:02:00,
2013-01-30 22:11:00,19.0,11.0,-100.00,WNW,285,16.0,22.0,70,0.00,,,-99.99,,2013-01-31 04:11:00,
2013-01-30 22:22:00,18.0,11.0,-100.00,WNW,285,12.0,18.0,70,0.00,,,-99.99,,2013-01-31 04:22:00,
2013-01-30 22:31:00,18.0,10.0,-100.00,West,275,16.0,22.0,71,0.00,,,-99.99,,2013-01-31 04:31:00,
2013-01-30 22:41:00,18.0,10.0,-100.00,West,275,16.0,22.0,71,0.00,,,-99.99,,2013-01-31 04:41:00,
2013-01-30 22:51:00,17.0,9.0,-100.00,WNW,290,19.0,29.0,70,0.00,,,-99.99,,2013-01-31 04:51:00,
2013-01-30 23:03:00,17.0,9.0,-100.00,WNW,290,19.0,29.0,70,0.00,,,-99.99,,2013-01-31 05:03:00,
2013-01-30 23:11:00,16.0,8.0,-100.00,NW,305,14.0,26.0,68,0.00,,,-99.99,,2013-01-31 05:11:00,
2013-01-30 23:22:00,16.0,8.0,-100.00,NW,305,16.0,22.0,69,0.00,,,-99.99,,2013-01-31 05:22:00,
2013-01-30 23:32:00,16.0,8.0,-100.00,NW,305,16.0,22.0,69,0.00,,,-99.99,,2013-01-31 05:32:00,
2013-01-30 23:41:00,16.0,8.0,-100.00,West,275,14.0,19.0,71,0.01,,,-99.99,,2013-01-31 05:41:00,
2013-01-30 23:51:00,16.0,8.0,-100.00,West,275,14.0,19.0,71,0.01,,,-99.99,,2013-01-31 05:51:00,